This is the latest recevied weather packets stored in our database for station/object W3BRL. If no packets are shown the sender has not sent any weather packets the latest 10 day(s).
| Time | Temp. | Humidity | Pressure | Rain* | Wind** | Luminosity | Snow |
|---|---|---|---|---|---|---|---|
| 1777997329 | 23.33° C | 42% | 1006.3 hPa | 0 mm | - | 458 W/m² | - |
| 1777997027 | 23.33° C | 42% | 1006.1 hPa | 0 mm | - | 429 W/m² | - |
| 1777996723 | 23.33° C | 42% | 1006.3 hPa | 0 mm | - | 972 W/m² | - |
| 1777996419 | 23.33° C | 41% | 1006.1 hPa | 0 mm | - | 335 W/m² | - |
| 1777996116 | 23.33° C | 42% | 1006.2 hPa | 0 mm | - | 742 W/m² | - |
| 1777995812 | 22.78° C | 43% | 1006.1 hPa | 0 mm | - | 838 W/m² | - |
| 1777995508 | 23.33° C | 42% | 1006.2 hPa | 0 mm | - | 755 W/m² | - |
| 1777995206 | 22.78° C | 43% | 1006.1 hPa | 0 mm | - | 765 W/m² | - |
| 1777994903 | 22.22° C | 44% | 1006.3 hPa | 0 mm | - | 753 W/m² | - |
| 1777994600 | 22.22° C | 45% | 1006.1 hPa | 0 mm | - | 810 W/m² | - |
| 1777994294 | 22.22° C | 44% | 1006.3 hPa | 0 mm | - | 486 W/m² | - |
| 1777993991 | 22.22° C | 44% | 1006.3 hPa | 0 mm | - | 461 W/m² | - |
| 1777993688 | 22.22° C | 44% | 1006.2 hPa | 0 mm | - | 827 W/m² | - |
| 1777993385 | 21.67° C | 45% | 1006.4 hPa | 0 mm | - | 520 W/m² | - |
| 1777993085 | 21.67° C | 46% | 1006.4 hPa | 0 mm | - | 401 W/m² | - |
| 1777992784 | 21.67° C | 45% | 1006.4 hPa | 0 mm | - | 595 W/m² | - |
| 1777992481 | 21.67° C | 45% | 1006.7 hPa | 0 mm | - | 323 W/m² | - |
| 1777992180 | 21.67° C | 46% | 1006.6 hPa | 0 mm | - | 426 W/m² | - |
| 1777991876 | 21.67° C | 45% | 1006.6 hPa | 0 mm | - | 343 W/m² | - |
| 1777991574 | 21.67° C | 45% | 1006.5 hPa | 0 mm | - | 627 W/m² | - |
| 1777991270 | 21.11° C | 48% | 1006.6 hPa | 0 mm | - | 594 W/m² | - |
| 1777990968 | 21.11° C | 48% | 1006.5 hPa | 0 mm | - | 519 W/m² | - |
| 1777990665 | 20.56° C | 48% | 1006.8 hPa | 0 mm | - | 614 W/m² | - |
| 1777990362 | 20.56° C | 48% | 1006.7 hPa | 0 mm | - | 404 W/m² | - |
| 1777990058 | 20.56° C | 49% | 1006.8 hPa | 0 mm | - | 434 W/m² | - |
* Rain latest hour (hover to see other rain measurements)
** Current wind speed in m/s (hover to see current wind gust speed)